Regional Weather Roundup
Issued by NWS

Home | Current Version | Previous Version | Text Only | Print | Product List | Glossary Off
Versions: 1 2 3 4 5 6 7 8 9 10 11 12 13 14 15 16 17 18 19 20 21 22 23 24 25 26 27 28 29 30 31 32 33 34 35 36 37 38 39 40 41 42 43 44 45 46 47 48 49 50

000
ASUS43 KMPX 300201
RWRMN
WEATHER ROUNDUP FOR MINNESOTA
NATIONAL WEATHER SERVICE TWIN CITIES/CHANHASSEN MN
900 PM CDT THU SEP 29 2016


NOTE: "FAIR" INDICATES FEW OR NO CLOUDS BELOW 12,000 FEET WITH NO
SIGNIFICANT WEATHER AND/OR OBSTRUCTIONS TO VISIBILITY. N/A MEANS
CURRENT SKY AND/OR WEATHER CONDITIONS ARE NOT AVAILABLE.

MNZ060>063-068>070-300300-
   Twin Cities Metro

CITY           SKY/WX    TMP DP  RH WIND       PRES   REMARKS
TWIN CITIES    CLEAR     59  50  72 N6        30.39S
ST PAUL        CLEAR     56  51  84 CALM      30.40R
CRYSTAL        CLEAR     53  48  83 CALM      30.38S
BLAINE         CLEAR     55  52  88 NE3       30.39S
LAKEVILLE      CLEAR     54  52  94 CALM      30.39S
EDEN PRAIRIE   CLEAR     58  51  78 N5        30.38S
LAKEVILLE      CLEAR     54  52  94 CALM      30.39S
SOUTH ST PAUL  CLEAR     58  51  78 NW3       30.39R
LAKE ELMO      FAIR      52  52 100 CALM      30.40S
$$
MNZ001>005-007-008-013>017-022>024-027-028-300300-
   Northwest Minnesota

CITY           SKY/WX    TMP DP  RH WIND       PRES   REMARKS
BEMIDJI        CLOUDY    54  49  83 E5        30.43S
HALLOCK        CLEAR     55  46  71 SE7       30.37S
ROSEAU         HAZE      54  46  76 SE6       30.41F VSB 1
WARROAD        CLEAR     52  46  82 SE9       30.43S
THIEF RVR FALL CLEAR     53  46  77 SE10      30.41S
CROOKSTON      CLEAR     54  46  76 SE9       30.39S
FOSSTON        CLEAR     46  39  76 E3        30.42S
DETROIT LAKES  CLEAR     54  45  71 SE5       30.41S
MOORHEAD       CLEAR     54  45  71 E8        30.39S
PARK RAPIDS    MOCLDY    56  44  64 E5        30.42S
MAHNOMEN       FAIR      52  45  77 SE6       30.41S
$$
MNZ006-009>011-018-025>026-300300-
   North Central Minnesota

CITY           SKY/WX    TMP DP  RH WIND       PRES   REMARKS
BAUDETTE       CLOUDY    55  46  71 SE7       30.44F
FLAG ISLAND    CLEAR     57  48  72 SE10      30.41F
INTL FALLS     CLOUDY    53  49  86 SE5       30.46S
WASKISH        CLOUDY    54  48  82 CALM      30.44S
BIG FORK       CLOUDY    54  48  82 CALM      30.46S
GRAND RAPIDS   CLOUDY    50  48  93 CALM      30.47R
ORR            CLOUDY    52  46  82 CALM      30.45S
COOK           CLOUDY    52  48  87 CALM      30.48R
WALKER         CLOUDY    55  49  80 CALM      30.43S
$$
MNZ012-019>021-037-300300-
   Northeast Minnesota

CITY           SKY/WX    TMP DP  RH WIND       PRES   REMARKS
DULUTH         CLEAR     50  48  93 E8        30.46S
ELY            CLOUDY    52  46  82 CALM      30.48S
HIBBING        CLOUDY    51  48  89 E5        30.46R
EVELETH        MOCLDY    53  48  84 CALM      30.48R
DULUTH HARBOR  CLEAR     55  52  88 NE16      30.47S
TWO HARBORS    CLEAR     52  46  82 N5        30.46S
SILVER BAY     CLEAR     46  46 100 CALM      30.47R
GRAND MARAIS     N/A     50  49  96 NW3       30.49R
G MARAIS ARPRT CLEAR     45  41  87 N3        30.50S
$$
MNZ029>031-032-039>041-046>048-054>057-064-300300-
   West Central Minnesota

CITY           SKY/WX    TMP DP  RH WIND       PRES   REMARKS
FERGUS FALLS   CLEAR     54  46  76 E5        30.41S
MORRIS         CLEAR     48  45  87 E7        30.38S
ALEXANDRIA     CLEAR     51  47  86 E5        30.41S
ELBOW LAKE     FAIR      53  48  83 SE5       30.40R
WADENA         CLEAR     48  45  87 E3        30.41F
GLENWOOD       CLEAR     50  46  87 NE6       30.41R
BENSON         CLEAR     54  46  76 CALM      30.39S
ORTONVILLE     CLEAR     55  46  71 CALM      30.37S
MADISON        CLEAR     54  48  82 CALM      30.37S
WILLMAR        FAIR      54  48  82 E5        30.40F
$$
MNZ033>034-036-042>043-049>051-058-059-300300-
   Central Minnesota

CITY           SKY/WX    TMP DP  RH WIND       PRES   REMARKS
ST CLOUD       CLEAR     50  49  96 CALM      30.40S
SAUK CENTRE    FAIR      51  47  87 NE6       30.41S
PAYNESVILLE    CLEAR     49  50 100 CALM      30.40S
AITKIN         CLEAR     52  45  76 E3        30.43R
PINE RIVER     CLEAR     46  46 100 CALM      30.45S
BRAINERD       CLEAR     49  48  97 NE3       30.43R
STAPLES        CLEAR     48  45  87 CALM      30.42S
LONG PRAIRIE   FAIR      48  45  87 CALM      30.41F
LITTLE FALLS   CLEAR     50  46  87 CALM      30.41S
LITCHFIELD     CLEAR     54  52  94 CALM      30.40S
BUFFALO        CLEAR     50  47  88 CALM      30.40F
MAPLE LAKE     CLEAR     50  49  97 CALM      30.40S
HUTCHINSON     CLEAR     51  49  94 CALM      30.40S
$$
MNZ037-044-045-052-053-300300-
   East Central Minnesota

CITY           SKY/WX    TMP DP  RH WIND       PRES   REMARKS
PRINCETON      CLEAR     50  48  93 CALM      30.41S
MORA           CLEAR     52  46  82 NE3       30.44S
CAMBRIDGE      CLEAR     54  48  82 CALM      30.40R
MOOSE LAKE     CLEAR     50  46  87 NE5       30.43R
HINCKLEY       FAIR      52  50  93 NE6       30.43S
CLOQUET        CLEAR     50  46  87 E7        30.45S
MCGREGOR       CLEAR     48  45  87 E5        30.45S
$$
MNZ071>073-080-081-089-090-097-098-300300-
   Southwest Minnesota

CITY           SKY/WX    TMP DP  RH WIND       PRES   REMARKS
MONTEVIDEO     CLEAR     54  46  76 SE6       30.39S
GRANITE FALLS  CLEAR     57  49  74 NE6       30.39S
CANBY          CLEAR     52  49  89 CALM      30.38S
MARSHALL       CLEAR     57  48  72 E6        30.37S
REDWOOD FALLS  CLEAR     57  48  72 E6        30.38S
OLIVIA         CLEAR     54  46  76 E5        30.38S
PIPESTONE      CLEAR     55  46  71 E3        30.36S
WINDOM         CLEAR     54  46  76 NE3       30.38S
WORTHINGTON    CLEAR     51  47  86 E3        30.38S
JACKSON        CLEAR     52  45  76 E6        30.38S
TRACY          CLEAR     54  49  84 CALM      30.38S
$$
MNZ065>067-074>077-082>085-091>093-300300-
   South Central Minnesota

CITY           SKY/WX    TMP DP  RH WIND       PRES   REMARKS
MANKATO        CLEAR     58  51  78 NE6       30.38S
NEW ULM        CLEAR     57  48  72 E3        30.38S HAZE
ST JAMES       CLEAR     54  48  82 CALM      30.38S
FAIRMONT       CLEAR     55  48  77 NE5       30.38R
GLENCOE        CLEAR     53  51  95 CALM      30.38S
FARIBAULT      CLEAR     48  46  93 CALM      30.39R
OWATONNA       CLEAR     54  46  76 CALM      30.38S
WASECA         CLEAR     52  46  82 NE6       30.39S
ALBERT LEA     CLEAR     55  48  76 N5        30.37S
$$
MNZ078>079-086>088-094>096-300300-
   Southeast Minnesota

CITY           SKY/WX    TMP DP  RH WIND       PRES   REMARKS
ROCHESTER      CLEAR     57  50  77 N6        30.39R
RED WING       CLEAR     54  52  94 CALM      30.37S
STANTON        CLEAR     52  50  92 CALM      30.38R
DODGE CENTER   PTCLDY    54  46  76 NE5       30.39R
WINONA         CLEAR     59  54  82 W3        30.37R
AUSTIN         CLEAR     55  48  76 NE5       30.37S
PRESTON        CLEAR     56  49  77 N7        30.37S
$$
ABBREVIATIONS USED IN REMARKS
   TC - TEMPERATURES IN CELSIUS
  WCI - WIND CHILL INDEX
   HX - HEAT INDEX
  VSB - VISIBILITY
$$



USA.gov is the U.S. government's official web portal to all federal, state and local government web resources and services.